| time (UTC) | temp C | wind direction | speed KPH | gust KPH | rain 1hr cm | rain 24hr cm | rain mn cm | humidity % | barometer mb |
| 20260502163524 | 26 | 3 | 1.6 | 8.0 | 0.00 | 0.00 | 0.00 | 40 | 1014.6 |
| 20260502163043 | 26 | 354 | 0.0 | 4.8 | 0.00 | 0.00 | 0.00 | 41 | 1014.7 |
| 20260502162532 | 26 | 3 | 1.6 | 12.9 | 0.00 | 0.00 | 0.00 | 41 | 1014.8 |
| 20260502162028 | 25 | 354 | 0.0 | 4.8 | 0.00 | 0.00 | 0.00 | 42 | 1014.8 |
| 20260502161529 | 25 | 354 | 1.6 | 12.9 | 0.00 | 0.00 | 0.00 | 42 | 1014.8 |
| 20260502161020 | 26 | 9 | 1.6 | 12.9 | 0.00 | 0.00 | 0.00 | 41 | 1014.9 |
| 20260502160532 | 26 | 3 | 1.6 | 16.1 | 0.00 | 0.00 | 0.00 | 40 | 1014.9 |
| 20260502151524 | 26 | 22 | 4.8 | 29.0 | 0.00 | 0.00 | 0.00 | 37 | 1015.5 |
| 20260502151043 | 27 | 355 | 1.6 | 8.0 | 0.00 | 0.00 | 0.00 | 37 | 1015.6 |
| 20260502150532 | 27 | 7 | 1.6 | 12.9 | 0.00 | 0.00 | 0.00 | 36 | 1015.7 |
| 20260502130532 | 27 | 4 | 3.2 | 12.9 | 0.00 | 0.00 | 0.00 | 34 | 1017.2 |
| 20260502123547 | 28 | 344 | 3.2 | 16.1 | 0.00 | 0.00 | 0.00 | 34 | 1017.6 |
| 20260502123040 | 28 | 352 | 3.2 | 20.9 | 0.00 | 0.00 | 0.00 | 35 | 1017.6 |
| 20260502122548 | 27 | 8 | 1.6 | 20.9 | 0.00 | 0.00 | 0.00 | 36 | 1017.5 |
| 20260502122028 | 28 | 356 | 4.8 | 12.9 | 0.00 | 0.00 | 0.00 | 34 | 1017.7 |
| 20260502121524 | 28 | 4 | 1.6 | 8.0 | 0.00 | 0.00 | 0.00 | 35 | 1017.7 |
| 20260502121020 | 28 | 1 | 0.0 | 8.0 | 0.00 | 0.00 | 0.00 | 34 | 1017.8 |
| 20260502120535 | 28 | 345 | 3.2 | 16.1 | 0.00 | 0.00 | 0.00 | 34 | 1017.8 |
| 20260502115524 | 28 | 343 | 1.6 | 16.1 | 0.00 | 0.00 | 0.00 | 34 | 1017.9 |
| 20260502115039 | 29 | 348 | 1.6 | 4.8 | 0.00 | 0.00 | 0.00 | 34 | 1018.1 |
| 20260502114537 | 29 | 336 | 1.6 | 8.0 | 0.00 | 0.00 | 0.00 | 34 | 1018.2 |
| 20260502114121 | 29 | 353 | 0.0 | 4.8 | 0.00 | 0.00 | 0.00 | 34 | 1018.2 |
| 20260502113556 | 28 | 357 | 1.6 | 8.0 | 0.00 | 0.00 | 0.00 | 35 | 1018.2 |
| 20260502113020 | 27 | 2 | 1.6 | 4.8 | 0.00 | 0.00 | 0.00 | 35 | 1018.4 |
| 20260502112544 | 27 | 2 | 1.6 | 8.0 | 0.00 | 0.00 | 0.00 | 35 | 1018.4 |
| 20260502112028 | 27 | 12 | 3.2 | 12.9 | 0.00 | 0.00 | 0.00 | 35 | 1018.5 |
| 20260502111524 | 27 | 14 | 1.6 | 8.0 | 0.00 | 0.00 | 0.00 | 35 | 1018.5 |
| 20260502111101 | 26 | 355 | 0.0 | 8.0 | 0.00 | 0.00 | 0.00 | 37 | 1018.6 |
| 20260502110532 | 26 | 359 | 1.6 | 12.9 | 0.00 | 0.00 | 0.00 | 36 | 1018.6 |
| 20260502110028 | 26 | 348 | 0.0 | 8.0 | 0.00 | 0.00 | 0.00 | 35 | 1018.7 |
| 20260502105544 | 27 | 350 | 1.6 | 8.0 | 0.00 | 0.00 | 0.00 | 34 | 1018.8 |
| 20260502105043 | 27 | 360 | 1.6 | 8.0 | 0.00 | 0.00 | 0.00 | 34 | 1018.9 |
| 20260502104532 | 26 | 358 | 0.0 | 8.0 | 0.00 | 0.00 | 0.00 | 36 | 1018.9 |
| 20260502104048 | 25 | 10 | 1.6 | 8.0 | 0.00 | 0.00 | 0.00 | 37 | 1018.9 |
| 20260502103524 | 25 | 8 | 1.6 | 12.9 | 0.00 | 0.00 | 0.00 | 38 | 1019.0 |
| 20260502103020 | 23 | 4 | 0.0 | 8.0 | 0.00 | 0.00 | 0.00 | 40 | 1019.1 |
| 20260502102532 | 23 | 4 | 1.6 | 8.0 | 0.00 | 0.00 | 0.00 | 40 | 1019.1 |
| 20260502102028 | 23 | 1 | 1.6 | 8.0 | 0.00 | 0.00 | 0.00 | 40 | 1019.2 |
| 20260502101525 | 23 | 14 | 1.6 | 8.0 | 0.00 | 0.00 | 0.00 | 39 | 1019.2 |
| 20260502101020 | 24 | 10 | 1.6 | 8.0 | 0.00 | 0.00 | 0.00 | 40 | 1019.3 |
| 20260502100521 | 24 | 1 | 1.6 | 12.9 | 0.00 | 0.00 | 0.00 | 39 | 1019.4 |
| 20260502091021 | 21 | 5 | 1.6 | 8.0 | 0.00 | 0.00 | 0.00 | 42 | |
| 20260502090533 | 21 | 10 | 3.2 | 8.0 | 0.00 | 0.00 | 0.00 | 41 | |
| 20260502071024 | 14 | 0.0 | 0.0 | 0.00 | 0.00 | 0.00 | 59 | 1021.3 | |
| 20260502070605 | 13 | 0.0 | 0.0 | 0.00 | 0.00 | 0.00 | 61 | 1021.4 | |
| 20260502070045 | 14 | 3 | 0.0 | 4.8 | 0.00 | 0.00 | 0.00 | 60 | 1021.5 |
| 20260502065525 | 14 | 1 | 0.0 | 4.8 | 0.00 | 0.00 | 0.00 | 59 | 1021.6 |
| 20260502065021 | 13 | 356 | 0.0 | 4.8 | 0.00 | 0.00 | 0.00 | 62 | 1021.5 |
| 20260502064533 | 13 | 5 | 0.0 | 8.0 | 0.00 | 0.00 | 0.00 | 63 | 1021.5 |
| 20260502064052 | 13 | 359 | 0.0 | 4.8 | 0.00 | 0.00 | 0.00 | 64 | 1021.5 |
| 20260502063525 | 13 | 18 | 0.0 | 8.0 | 0.00 | 0.00 | 0.00 | 65 | 1021.6 |
| 20260502063104 | 12 | 14 | 0.0 | 8.0 | 0.00 | 0.00 | 0.00 | 64 | 1021.6 |
| 20260502062533 | 13 | 10 | 1.6 | 8.0 | 0.00 | 0.00 | 0.00 | 65 | 1021.6 |
| 20260502062029 | 13 | 3 | 0.0 | 4.8 | 0.00 | 0.00 | 0.00 | 63 | 1021.6 |
| 20260502061525 | 13 | 0.0 | 0.0 | 0.00 | 0.00 | 0.00 | 61 | 1021.6 | |
| 20260502061040 | 13 | 0.0 | 0.0 | 0.00 | 0.00 | 0.00 | 63 | 1021.6 | |
| 20260502060521 | 12 | 9 | 0.0 | 4.8 | 0.00 | 0.00 | 0.00 | 63 | 1021.6 |
| 20260502060029 | 12 | 0.0 | 0.0 | 0.00 | 0.00 | 0.00 | 64 | 1021.6 | |
| 20260502055525 | 11 | 0.0 | 0.0 | 0.00 | 0.00 | 0.00 | 66 | 1021.6 | |
| 20260502055021 | 10 | 0.0 | 0.0 | 0.00 | 0.00 | 0.00 | 70 | 1021.6 | |
| 20260502054533 | 10 | 0.0 | 0.0 | 0.00 | 0.00 | 0.00 | 70 | 1021.6 | |
| 20260502054045 | 8 | 0.0 | 0.0 | 0.00 | 0.00 | 0.00 | 73 | 1021.6 | |
| 20260502053549 | 8 | 330 | 0.0 | 4.8 | 0.00 | 0.00 | 0.00 | 75 | 1021.5 |
| 20260502053037 | 8 | 0.0 | 0.0 | 0.00 | 0.00 | 0.00 | 77 | 1021.6 | |
| 20260502052533 | 7 | 0.0 | 0.0 | 0.00 | 0.00 | 0.00 | 79 | 1021.5 | |
| 20260502052029 | 6 | 0.0 | 0.0 | 0.00 | 0.00 | 0.00 | 82 | 1021.4 | |
| 20260502051601 | 6 | 0.0 | 0.0 | 0.00 | 0.00 | 0.00 | 83 | 1021.4 | |
| 20260502051057 | 6 | 0.0 | 0.0 | 0.00 | 0.00 | 0.00 | 84 | 1021.4 | |
| 20260502050553 | 6 | 0.0 | 0.0 | 0.00 | 0.00 | 0.00 | 85 | 1021.3 | |
| 20260502050105 | 6 | 0.0 | 0.0 | 0.00 | 0.00 | 0.00 | 85 | 1021.3 | |
| 20260502045525 | 6 | 0.0 | 0.0 | 0.00 | 0.00 | 0.00 | 85 | 1021.3 | |
| 20260502045040 | 6 | 0.0 | 0.0 | 0.00 | 0.00 | 0.00 | 85 | 1021.2 | |
| 20260502044523 | 6 | 0.0 | 0.0 | 0.00 | 0.00 | 0.00 | 85 | 1021.2 | |
| 20260502044105 | 6 | 0.0 | 0.0 | 0.00 | 0.00 | 0.00 | 86 | 1021.3 | |
| 20260502043604 | 6 | 0.0 | 0.0 | 0.00 | 0.00 | 0.00 | 85 | 1021.3 | |
| 20260502043041 | 5 | 0.0 | 0.0 | 0.00 | 0.00 | 0.00 | 86 | 1021.3 | |
| 20260502042552 | 5 | 0.0 | 0.0 | 0.00 | 0.00 | 0.00 | 86 | 1021.4 | |
| 20260502042049 | 5 | 0.0 | 0.0 | 0.00 | 0.00 | 0.00 | 86 | 1021.3 | |
| 20260502041528 | 5 | 0.0 | 0.0 | 0.00 | 0.00 | 0.00 | 86 | 1021.4 | |
| 20260502041100 | 5 | 0.0 | 0.0 | 0.00 | 0.00 | 0.00 | 86 | 1021.5 | |
| 20260502040553 | 6 | 0.0 | 0.0 | 0.00 | 0.00 | 0.00 | 85 | 1021.3 | |
| 20260502040036 | -17 | 0.0 | 0.0 | 0.00 | 0.00 | 0.00 | 1021.4 | ||
| 20260502035616 | 6 | 0.0 | 0.0 | 0.00 | 0.00 | 0.00 | 84 | 1021.5 | |
| 20260502035100 | -17 | 0.0 | 0.0 | 0.00 | 0.00 | 0.00 | 1021.5 | ||
| 20260502034536 | -17 | 0.0 | 0.0 | 0.00 | 0.00 | 0.00 | 1021.5 | ||
| 20260502034121 | -17 | 0.0 | 0.0 | 0.00 | 0.00 | 0.00 | 1021.6 | ||
| 20260502033601 | -17 | 0.0 | 0.0 | 0.00 | 0.00 | 0.00 | 1021.5 | ||
| 20260502033044 | 6 | 0.0 | 0.0 | 0.00 | 0.00 | 0.00 | 84 | 1021.5 | |
| 20260502032521 | -17 | 0.0 | 0.0 | 0.00 | 0.00 | 0.00 | 1021.5 | ||
| 20260502032104 | 6 | 0.0 | 0.0 | 0.00 | 0.00 | 0.00 | 84 | 1021.4 | |
| 20260502031547 | 6 | 0.0 | 0.0 | 0.00 | 0.00 | 0.00 | 84 | 1021.5 | |
| 20260502031105 | 6 | 0.0 | 0.0 | 0.00 | 0.00 | 0.00 | 84 | 1021.5 | |
| 20260502030549 | 6 | 0.0 | 0.0 | 0.00 | 0.00 | 0.00 | 83 | 1021.5 | |
| 20260502030049 | 6 | 0.0 | 0.0 | 0.00 | 0.00 | 0.00 | 83 | 1021.5 | |
| 20260502025528 | -17 | 0.0 | 0.0 | 0.00 | 0.00 | 0.00 | 1021.5 | ||
| 20260502025116 | -17 | 0.0 | 0.0 | 0.00 | 0.00 | 0.00 | 1021.4 | ||
| 20260502024553 | 6 | 0.0 | 0.0 | 0.00 | 0.00 | 0.00 | 83 | 1021.5 | |
| 20260502024033 | -17 | 0.0 | 0.0 | 0.00 | 0.00 | 0.00 | 1021.5 | ||
| 20260502023616 | -17 | 0.0 | 0.0 | 0.00 | 0.00 | 0.00 | 1021.5 | ||
| 20260502023057 | 7 | 0.0 | 0.0 | 0.00 | 0.00 | 0.00 | 82 | 1021.4 | |
| 20260502022536 | -17 | 0.0 | 0.0 | 0.00 | 0.00 | 0.00 | 1021.5 | ||
| 20260502022141 | -17 | 0.0 | 0.0 | 0.00 | 0.00 | 0.00 | 1021.5 | ||
| 20260502021601 | -17 | 0.0 | 0.0 | 0.00 | 0.00 | 0.00 | 1021.4 | ||
| 20260502021040 | -17 | 0.0 | 0.0 | 0.00 | 0.00 | 0.00 | 1021.4 | ||
| 20260502020521 | 7 | 0.0 | 0.0 | 0.00 | 0.00 | 0.00 | 79 | 1021.4 | |
| 20260502020105 | 7 | 0.0 | 0.0 | 0.00 | 0.00 | 0.00 | 79 | 1021.4 | |
| 20260502015525 | 7 | 0.0 | 0.0 | 0.00 | 0.00 | 0.00 | 79 | 1021.4 | |
| 20260502015025 | -17 | 0.0 | 0.0 | 0.00 | 0.00 | 0.00 | 1021.5 | ||
| 20260502014612 | -17 | 0.0 | 0.0 | 0.00 | 0.00 | 0.00 | 1021.5 | ||
| 20260502014048 | 8 | 0.0 | 0.0 | 0.00 | 0.00 | 0.00 | 77 | 1021.5 | |
| 20260502013529 | -17 | 0.0 | 0.0 | 0.00 | 0.00 | 0.00 | 1021.5 | ||
| 20260502013133 | -17 | 0.0 | 0.0 | 0.00 | 0.00 | 0.00 | 1021.6 | ||
| 20260502012553 | 8 | 0.0 | 0.0 | 0.00 | 0.00 | 0.00 | 76 | 1021.5 | |
| 20260502012032 | 8 | 0.0 | 0.0 | 0.00 | 0.00 | 0.00 | 76 | 1021.6 | |
| 20260502011037 | 8 | 0.0 | 0.0 | 0.00 | 0.00 | 0.00 | 76 | 1021.6 | |
| 20260502010537 | 8 | 0.0 | 0.0 | 0.00 | 0.00 | 0.00 | 75 | 1021.7 | |
| 20260502010121 | 8 | 0.0 | 0.0 | 0.00 | 0.00 | 0.00 | 75 | 1021.8 | |
| 20260502005601 | 8 | 0.0 | 0.0 | 0.00 | 0.00 | 0.00 | 76 | 1021.8 | |
| 20260502005040 | 8 | 336 | 1.6 | 4.8 | 0.00 | 0.00 | 0.00 | 75 | 1021.9 |
| 20260502004520 | 8 | 0.0 | 0.0 | 0.00 | 0.00 | 0.00 | 76 | 1021.9 | |
| 20260502004105 | 8 | 0.0 | 0.0 | 0.00 | 0.00 | 0.00 | 76 | 1022.0 | |
| 20260502003544 | 8 | 0.0 | 0.0 | 0.00 | 0.00 | 0.00 | 76 | 1022.0 | |
| 20260502003028 | -17 | 0.0 | 0.0 | 0.00 | 0.00 | 0.00 | 1022.0 | ||
| 20260502002609 | -17 | 0.0 | 0.0 | 0.00 | 0.00 | 0.00 | 1022.0 | ||
| 20260502002109 | -17 | 0.0 | 0.0 | 0.00 | 0.00 | 0.00 | 1022.0 | ||
| 20260502001531 | -17 | 0.0 | 0.0 | 0.00 | 0.00 | 0.00 | 1022.1 | ||
| 20260502001112 | -17 | 0.0 | 0.0 | 0.00 | 0.00 | 0.00 | 1022.1 | ||
| 20260502000552 | -17 | 0.0 | 0.0 | 0.00 | 0.00 | 0.00 | 1022.1 | ||
| 20260502000056 | -17 | 0.0 | 0.0 | 0.00 | 0.00 | 0.00 | 1022.2 | ||
| 20260501235617 | -17 | 0.0 | 0.0 | 0.00 | 0.00 | 0.00 | 1022.3 | ||
| 20260501235117 | 10 | 0.0 | 0.0 | 0.00 | 0.00 | 0.00 | 71 | 1022.2 | |
| 20260501234537 | -17 | 0.0 | 0.0 | 0.00 | 0.00 | 0.00 | 1022.3 | ||
| 20260501234121 | 10 | 329 | 1.6 | 4.8 | 0.00 | 0.00 | 0.00 | 72 | 1022.4 |
| 20260501233601 | 10 | 0.0 | 0.0 | 0.00 | 0.00 | 0.00 | 69 | 1022.4 | |
| 20260501233037 | -17 | 0.0 | 0.0 | 0.00 | 0.00 | 0.00 | 1022.4 | ||
| 20260501232521 | -17 | 0.0 | 0.0 | 0.00 | 0.00 | 0.00 | 1022.4 | ||
| 20260501232108 | -17 | 0.0 | 0.0 | 0.00 | 0.00 | 0.00 | 1022.4 | ||
| 20260501231545 | 10 | 0.0 | 0.0 | 0.00 | 0.00 | 0.00 | 70 | 1022.3 | |
| 20260501231128 | -17 | 0.0 | 0.0 | 0.00 | 0.00 | 0.00 | 1022.3 | ||
| 20260501230608 | 10 | 0.0 | 0.0 | 0.00 | 0.00 | 0.00 | 69 | 1022.3 | |
| 20260501230052 | 10 | 0.0 | 0.0 | 0.00 | 0.00 | 0.00 | 68 | 1022.4 | |
| 20260501225529 | 10 | 0.0 | 0.0 | 0.00 | 0.00 | 0.00 | 68 | 1022.4 | |
| 20260501225021 | 10 | 0.0 | 0.0 | 0.00 | 0.00 | 0.00 | 68 | 1022.4 | |
| 20260501224553 | 11 | 340 | 0.0 | 4.8 | 0.00 | 0.00 | 0.00 | 67 | 1022.4 |
| 20260501224032 | 11 | 0.0 | 0.0 | 0.00 | 0.00 | 0.00 | 67 | 1022.5 | |
| 20260501223542 | 11 | 0.0 | 0.0 | 0.00 | 0.00 | 0.00 | 67 | 1022.4 | |
| 20260501223021 | 11 | 0.0 | 0.0 | 0.00 | 0.00 | 0.00 | 66 | 1022.5 | |
| 20260501222537 | -17 | 0.0 | 0.0 | 0.00 | 0.00 | 0.00 | 1022.4 | ||
| 20260501222141 | -17 | 0.0 | 0.0 | 0.00 | 0.00 | 0.00 | 1022.4 | ||
| 20260501221600 | -17 | 0.0 | 0.0 | 0.00 | 0.00 | 0.00 | 1022.5 | ||
| 20260501221041 | 11 | 0.0 | 0.0 | 0.00 | 0.00 | 0.00 | 63 | 1022.5 | |
| 20260501220544 | 12 | 0.0 | 0.0 | 0.00 | 0.00 | 0.00 | 63 | 1022.5 | |
| 20260501220045 | -17 | 0.0 | 0.0 | 0.00 | 0.00 | 0.00 | 1022.5 | ||
| 20260501215608 | 12 | 0.0 | 0.0 | 0.00 | 0.00 | 0.00 | 62 | 1022.4 | |
| 20260501215024 | 12 | 341 | 1.6 | 4.8 | 0.00 | 0.00 | 0.00 | 62 | 1022.5 |
| 20260501214633 | 12 | 338 | 0.0 | 4.8 | 0.00 | 0.00 | 0.00 | 62 | 1022.5 |
| 20260501214049 | 12 | 335 | 1.6 | 8.0 | 0.00 | 0.00 | 0.00 | 62 | 1022.5 |
| 20260501213528 | 12 | 324 | 3.2 | 4.8 | 0.00 | 0.00 | 0.00 | 62 | 1022.5 |
| 20260501213112 | -17 | 0.0 | 0.0 | 0.00 | 0.00 | 0.00 | 1022.5 | ||
| 20260501212552 | 12 | 0.0 | 0.0 | 0.00 | 0.00 | 0.00 | 60 | 1022.5 | |
| 20260501212053 | 13 | 331 | 3.2 | 8.0 | 0.00 | 0.00 | 0.00 | 58 | 1022.5 |
| 20260501211549 | 13 | 321 | 3.2 | 8.0 | 0.00 | 0.00 | 0.00 | 58 | 1022.5 |
| 20260501211037 | 13 | 324 | 4.8 | 8.0 | 0.00 | 0.00 | 0.00 | 58 | 1022.5 |
| 20260501210537 | 13 | 329 | 4.8 | 8.0 | 0.00 | 0.00 | 0.00 | 58 | 1022.5 |
| 20260501210032 | 13 | 334 | 3.2 | 8.0 | 0.00 | 0.00 | 0.00 | 58 | 1022.4 |
| 20260501205542 | 13 | 338 | 0.0 | 4.8 | 0.00 | 0.00 | 0.00 | 58 | 1022.4 |
| 20260501205025 | 13 | 335 | 3.2 | 4.8 | 0.00 | 0.00 | 0.00 | 58 | 1022.4 |
| 20260501204521 | 13 | 317 | 0.0 | 4.8 | 0.00 | 0.00 | 0.00 | 57 | 1022.4 |
| 20260501204029 | 13 | 331 | 1.6 | 8.0 | 0.00 | 0.00 | 0.00 | 57 | 1022.4 |
| 20260501203525 | 14 | 335 | 1.6 | 8.0 | 0.00 | 0.00 | 0.00 | 56 | 1022.4 |
| 20260501203025 | 14 | 321 | 0.0 | 4.8 | 0.00 | 0.00 | 0.00 | 56 | 1022.4 |
| 20260501202536 | 14 | 332 | 1.6 | 8.0 | 0.00 | 0.00 | 0.00 | 56 | 1022.4 |
| 20260501202033 | 14 | 0.0 | 0.0 | 0.00 | 0.00 | 0.00 | 55 | 1022.4 | |
| 20260501201532 | 15 | 0.0 | 0.0 | 0.00 | 0.00 | 0.00 | 54 | 1022.4 | |
| 20260501201021 | 15 | 336 | 1.6 | 4.8 | 0.00 | 0.00 | 0.00 | 54 | 1022.4 |
| 20260501200553 | 15 | 0.0 | 0.0 | 0.00 | 0.00 | 0.00 | 54 | 1022.4 | |
| 20260501200036 | 15 | 0.0 | 0.0 | 0.00 | 0.00 | 0.00 | 53 | 1022.4 | |
| 20260501195545 | 15 | 0.0 | 0.0 | 0.00 | 0.00 | 0.00 | 53 | 1022.3 | |
| 20260501195021 | 15 | 0.0 | 0.0 | 0.00 | 0.00 | 0.00 | 52 | 1022.3 | |
| 20260501194617 | 16 | 0.0 | 0.0 | 0.00 | 0.00 | 0.00 | 51 | 1022.3 | |
| 20260501194029 | 16 | 0.0 | 0.0 | 0.00 | 0.00 | 0.00 | 51 | 1022.3 | |
| 20260501193541 | 16 | 331 | 0.0 | 4.8 | 0.00 | 0.00 | 0.00 | 51 | 1022.3 |
| 20260501193025 | 16 | 334 | 0.0 | 4.8 | 0.00 | 0.00 | 0.00 | 50 | 1022.3 |
| 20260501192521 | 16 | 334 | 0.0 | 4.8 | 0.00 | 0.00 | 0.00 | 48 | 1022.2 |
| 20260501192030 | 17 | 339 | 1.6 | 4.8 | 0.00 | 0.00 | 0.00 | 47 | 1022.3 |
| 20260501191525 | 17 | 0.0 | 0.0 | 0.00 | 0.00 | 0.00 | 46 | 1022.3 | |
| 20260501191025 | 17 | 0.0 | 0.0 | 0.00 | 0.00 | 0.00 | 45 | 1022.3 | |
| 20260501190609 | 18 | 0.0 | 0.0 | 0.00 | 0.00 | 0.00 | 43 | 1022.2 | |
| 20260501190050 | 18 | 347 | 0.0 | 4.8 | 0.00 | 0.00 | 0.00 | 42 | 1022.2 |
| 20260501185528 | 18 | 0.0 | 0.0 | 0.00 | 0.00 | 0.00 | 40 | 1022.2 | |
| 20260501185112 | -17 | 0.0 | 0.0 | 0.00 | 0.00 | 0.00 | 1022.1 | ||
| 20260501184553 | -17 | 0.0 | 0.0 | 0.00 | 0.00 | 0.00 | 1022.2 | ||
| 20260501184032 | -17 | 0.0 | 0.0 | 0.00 | 0.00 | 0.00 | 1022.2 | ||
| 20260501183637 | 20 | 0.0 | 0.0 | 0.00 | 0.00 | 0.00 | 35 | 1022.1 | |
| 20260501183021 | 20 | 0.0 | 0.0 | 0.00 | 0.00 | 0.00 | 34 | 1022.2 | |
| 20260501182539 | 21 | 3 | 0.0 | 4.8 | 0.00 | 0.00 | 0.00 | 33 | 1022.1 |
| 20260501182030 | 21 | 0.0 | 0.0 | 0.00 | 0.00 | 0.00 | 32 | 1022.1 | |
| 20260501181601 | 21 | 8 | 0.0 | 4.8 | 0.00 | 0.00 | 0.00 | 32 | 1022.1 |
| 20260501181021 | 21 | 19 | 0.0 | 8.0 | 0.00 | 0.00 | 0.00 | 32 | 1022.1 |
| 20260501180521 | 21 | 8 | 0.0 | 8.0 | 0.00 | 0.00 | 0.00 | 31 | 1022.0 |
| 20260501180030 | 22 | 360 | 0.0 | 4.8 | 0.00 | 0.00 | 0.00 | 31 | 1022.0 |
| 20260501175525 | 22 | 18 | 1.6 | 12.9 | 0.00 | 0.00 | 0.00 | 30 | 1022.0 |
| 20260501175045 | 22 | 6 | 3.2 | 16.1 | 0.00 | 0.00 | 0.00 | 29 | 1022.0 |
| 20260501174554 | 22 | 26 | 4.8 | 20.9 | 0.00 | 0.00 | 0.00 | 29 | 1022.0 |
| 20260501174050 | 22 | 8 | 3.2 | 12.9 | 0.00 | 0.00 | 0.00 | 29 | 1022.0 |
| 20260501173529 | 22 | 23 | 3.2 | 12.9 | 0.00 | 0.00 | 0.00 | 29 | 1022.0 |
| 20260501173038 | 22 | 15 | 4.8 | 12.9 | 0.00 | 0.00 | 0.00 | 29 | 1022.0 |
| 20260501172616 | 22 | 7 | 4.8 | 20.9 | 0.00 | 0.00 | 0.00 | 28 | 1022.1 |
| 20260501172033 | 23 | 9 | 4.8 | 12.9 | 0.00 | 0.00 | 0.00 | 28 | 1022.0 |
| 20260501171558 | 23 | 37 | 3.2 | 16.1 | 0.00 | 0.00 | 0.00 | 28 | 1022.1 |
| 20260501171022 | 23 | 25 | 8.0 | 29.0 | 0.00 | 0.00 | 0.00 | 27 | 1022.1 |
| 20260501170536 | 23 | 16 | 6.4 | 16.1 | 0.00 | 0.00 | 0.00 | 27 | 1022.1 |
| 20260501170142 | 23 | 19 | 4.8 | 20.9 | 0.00 | 0.00 | 0.00 | 27 | 1022.2 |
| 20260501165542 | 23 | 17 | 4.8 | 24.1 | 0.00 | 0.00 | 0.00 | 27 | 1022.2 |
| 20260501165022 | 23 | 25 | 4.8 | 16.1 | 0.00 | 0.00 | 0.00 | 27 | 1022.3 |
| 20260501164521 | 23 | 13 | 4.8 | 12.9 | 0.00 | 0.00 | 0.00 | 27 | 1022.3 |
| 20260501164030 | 23 | 22 | 6.4 | 20.9 | 0.00 | 0.00 | 0.00 | 27 | 1022.4 |